Weather History for Independence, KS

Change the Weather History Date:

Monday, May 19, 2014

  Actual Average (KCFV) Record (KCFV)
Temperature  
Mean Temperature 70 °F -  
Max Temperature 82 °F 76 °F 93 °F (2006)
Min Temperature 59 °F 55 °F 45 °F (2002)
Cooling Degree Days 6    
Growing Degree Days 20 (Base 50)    
Moisture  
Dew Point 57 °F    
Average Humidity 66    
Maximum Humidity 94    
Minimum Humidity 37    
Precipitation  
Precipitation 0.00 in - - ()
Sea Level Pressure  
Sea Level Pressure 29.85 in    
Wind  
Wind Speed 17 mph (South)    
Max Wind Speed 31 mph    
Max Gust Speed 41 mph    
Visibility 10 miles    
Events      
Averages and records for this station are not official NWS values.
T = Trace of Precipitation, MM = Missing Value Source: NWS Daily Summary

Daily Weather History Graph

Daily Weather History Graph

Search for Another Location

Airport:

Trip Planner

Search our weather history database for the weather conditions in past years. The results will help you decide how hot, cold, wet, or windy it might be!

Date:

Astronomy

May. 19, 2014 Rise Set
Actual Time 6:11 AM CDT 8:28 PM CDT
Civil Twilight 5:42 AM CDT 8:57 PM CDT
Nautical Twilight 5:06 AM CDT 9:33 PM CDT
Astronomical Twilight 4:26 AM CDT 10:13 PM CDT
Moon 12:18 AM CDT (5/19) 11:08 AM CDT (5/19)
Length of Visible Light 15h 15m
Length of Day
14h 16m
Waning Gibbous, 71% of the Moon is Illuminated
May 19
Waning Gibbous
May 21
Last Quarter
May 28
New
Jun 5
First Quarter
Jun 12
Full

Hourly Weather History & Observations

Time (CDT) Temp. Heat Index Dew Point Humidity Pressure Visibility Wind Dir Wind Speed Gust Speed Precip Events Conditions
12:15 AM 60.8 °F - 55.4 °F 82% 29.99 in 10.0 mi SE 9.2 mph - N/A   Clear
12:35 AM 60.8 °F - 55.4 °F 82% 29.99 in 10.0 mi SE 10.4 mph - N/A   Clear
12:55 AM 60.8 °F - 55.4 °F 82% 29.98 in 10.0 mi SE 11.5 mph - N/A   Clear
1:15 AM 60.8 °F - 55.4 °F 82% 29.97 in 10.0 mi SE 12.7 mph 17.3 mph N/A   Clear
1:35 AM 59.0 °F - 55.4 °F 88% 29.97 in 10.0 mi SSE 11.5 mph - N/A   Clear
1:55 AM 59.0 °F - 55.4 °F 88% 29.96 in 10.0 mi SE 11.5 mph 17.3 mph N/A   Clear
2:15 AM 59.0 °F - 55.4 °F 88% 29.96 in 10.0 mi SSE 10.4 mph - N/A   Clear
2:35 AM 59.0 °F - 55.4 °F 88% 29.95 in 10.0 mi SSE 11.5 mph - N/A   Clear
2:55 AM 59.0 °F - 55.4 °F 88% 29.95 in 10.0 mi SSE 11.5 mph 18.4 mph N/A   Clear
3:15 AM 59.0 °F - 55.4 °F 88% 29.95 in 10.0 mi SSE 12.7 mph 16.1 mph N/A   Clear
3:35 AM 59.0 °F - 55.4 °F 88% 29.94 in 10.0 mi SSE 13.8 mph - N/A   Clear
3:55 AM 59.0 °F - 55.4 °F 88% 29.93 in 7.0 mi SSE 10.4 mph 18.4 mph N/A   Clear
4:15 AM 59.0 °F - 55.4 °F 88% 29.93 in 7.0 mi SSE 11.5 mph - N/A   Clear
4:35 AM 59.0 °F - 55.4 °F 88% 29.93 in 7.0 mi SSE 13.8 mph 17.3 mph N/A   Scattered Clouds
4:55 AM 59.0 °F - 55.4 °F 88% 29.93 in 7.0 mi SSE 13.8 mph 18.4 mph N/A   Scattered Clouds
5:15 AM 59.0 °F - 55.4 °F 88% 29.93 in 7.0 mi SSE 12.7 mph 17.3 mph N/A   Scattered Clouds
5:35 AM 59.0 °F - 55.4 °F 88% 29.92 in 7.0 mi SSE 12.7 mph - N/A   Scattered Clouds
5:55 AM 59.0 °F - 55.4 °F 88% 29.92 in 7.0 mi SSE 10.4 mph - N/A   Scattered Clouds
6:15 AM 59.0 °F - 55.4 °F 88% 29.92 in 10.0 mi SSE 12.7 mph 19.6 mph N/A   Scattered Clouds
6:35 AM 59.0 °F - 57.2 °F 94% 29.92 in 7.0 mi SSE 16.1 mph - N/A   Scattered Clouds
6:55 AM 60.8 °F - 57.2 °F 88% 29.92 in 7.0 mi SSE 15.0 mph 20.7 mph N/A   Scattered Clouds
7:15 AM 60.8 °F - 57.2 °F 88% 29.92 in 10.0 mi SSE 17.3 mph 23.0 mph N/A   Clear
7:35 AM 62.6 °F - 59.0 °F 88% 29.92 in 7.0 mi SSE 17.3 mph 24.2 mph N/A   Clear
9:35 AM 68.0 °F - 59.0 °F 73% 29.89 in 10.0 mi South 27.6 mph 34.5 mph N/A   Clear
9:55 AM 69.8 °F - 57.2 °F 64% 29.88 in 10.0 mi South 27.6 mph 36.8 mph N/A   Clear
10:15 AM 69.8 °F - 57.2 °F 64% 29.87 in 7.0 mi South 24.2 mph 41.4 mph N/A   Clear
10:35 AM 71.6 °F - 59.0 °F 64% 29.87 in 10.0 mi South 25.3 mph 40.3 mph N/A   Clear
10:55 AM 71.6 °F - 59.0 °F 64% 29.85 in 10.0 mi South 28.8 mph 38.0 mph N/A   Clear
11:15 AM 73.4 °F - 59.0 °F 61% 29.85 in 10.0 mi South 28.8 mph 34.5 mph N/A   Clear
11:35 AM 73.4 °F - 59.0 °F 61% 29.85 in 10.0 mi South 28.8 mph 35.7 mph N/A   Clear
11:55 AM 73.4 °F - 60.8 °F 65% 29.84 in 10.0 mi South 20.7 mph 34.5 mph N/A   Clear
12:15 PM 77.0 °F - 59.0 °F 54% 29.82 in 10.0 mi South 27.6 mph 33.4 mph N/A   Clear
12:35 PM 77.0 °F - 59.0 °F 54% 29.81 in 10.0 mi South 28.8 mph 38.0 mph N/A   Clear
12:55 PM 78.8 °F - 59.0 °F 51% 29.81 in 10.0 mi South 28.8 mph 41.4 mph N/A   Clear
1:15 PM 78.8 °F - 57.2 °F 47% 29.81 in 10.0 mi South 24.2 mph 36.8 mph N/A   Clear
1:35 PM 78.8 °F - 57.2 °F 47% 29.80 in 10.0 mi South 31.1 mph 40.3 mph N/A   Clear
1:55 PM 80.6 °F 81.1 °F 59.0 °F 48% 29.79 in 10.0 mi South 19.6 mph 34.5 mph N/A   Clear
2:15 PM 80.6 °F 80.8 °F 57.2 °F 45% 29.79 in 10.0 mi South 26.5 mph 36.8 mph N/A   Clear
2:35 PM 80.6 °F 81.1 °F 59.0 °F 48% 29.79 in 10.0 mi South 29.9 mph 36.8 mph N/A   Clear
3:15 PM 80.6 °F 80.8 °F 57.2 °F 45% 29.78 in 10.0 mi South 27.6 mph 36.8 mph N/A   Clear
3:35 PM 80.6 °F 80.8 °F 57.2 °F 45% 29.78 in 10.0 mi South 27.6 mph 35.7 mph N/A   Clear
3:55 PM 80.6 °F 80.5 °F 55.4 °F 42% 29.78 in 10.0 mi South 28.8 mph 38.0 mph N/A   Clear
4:15 PM 80.6 °F 80.5 °F 55.4 °F 42% 29.77 in 10.0 mi South 27.6 mph 34.5 mph N/A   Clear
4:35 PM 82.4 °F 81.4 °F 53.6 °F 37% 29.77 in 10.0 mi South 26.5 mph 39.1 mph N/A   Clear
4:55 PM 82.4 °F 81.7 °F 55.4 °F 39% 29.76 in 10.0 mi SSW 27.6 mph 38.0 mph N/A   Clear
5:15 PM 80.6 °F 80.5 °F 55.4 °F 42% 29.76 in 10.0 mi South 27.6 mph 34.5 mph N/A   Clear
5:55 PM 80.6 °F 80.5 °F 55.4 °F 42% 29.77 in 10.0 mi South 24.2 mph 38.0 mph N/A   Clear
6:15 PM 80.6 °F 80.5 °F 55.4 °F 42% 29.77 in 10.0 mi South 28.8 mph 35.7 mph N/A   Clear
6:35 PM 80.6 °F 80.8 °F 57.2 °F 45% 29.76 in 10.0 mi South 27.6 mph 38.0 mph N/A   Clear
6:55 PM 78.8 °F - 57.2 °F 47% 29.77 in 10.0 mi South 28.8 mph 36.8 mph N/A   Clear
7:15 PM 78.8 °F - 59.0 °F 51% 29.76 in 10.0 mi South 20.7 mph 32.2 mph N/A   Clear
7:35 PM 77.0 °F - 59.0 °F 54% 29.77 in 10.0 mi South 18.4 mph 27.6 mph N/A   Clear
7:55 PM 77.0 °F - 59.0 °F 54% 29.78 in 10.0 mi South 23.0 mph 31.1 mph N/A   Clear
8:15 PM 77.0 °F - 59.0 °F 54% 29.78 in 10.0 mi South 19.6 mph 29.9 mph N/A   Clear
8:35 PM 75.2 °F - 59.0 °F 57% 29.78 in 10.0 mi South 17.3 mph 26.5 mph N/A   Clear
8:55 PM 73.4 °F - 59.0 °F 61% 29.79 in 10.0 mi South 18.4 mph 25.3 mph N/A   Clear
9:15 PM 73.4 °F - 59.0 °F 61% 29.79 in 10.0 mi South 17.3 mph 24.2 mph N/A   Clear
9:35 PM 73.4 °F - 59.0 °F 61% 29.79 in 10.0 mi South 21.9 mph 28.8 mph N/A   Clear
9:55 PM 73.4 °F - 59.0 °F 61% 29.80 in 10.0 mi South 19.6 mph 25.3 mph N/A   Clear
10:15 PM 71.6 °F - 59.0 °F 64% 29.80 in 10.0 mi South 19.6 mph 25.3 mph N/A   Clear
10:35 PM 71.6 °F - 59.0 °F 64% 29.81 in 10.0 mi South 17.3 mph 25.3 mph N/A   Clear
10:55 PM 71.6 °F - 59.0 °F 64% 29.80 in 10.0 mi South 18.4 mph 24.2 mph N/A   Clear
11:15 PM 71.6 °F - 59.0 °F 64% 29.80 in 10.0 mi South 17.3 mph 26.5 mph N/A   Clear
11:35 PM 71.6 °F - 60.8 °F 69% 29.80 in 10.0 mi South 18.4 mph - N/A   Clear
11:55 PM 71.6 °F - 60.8 °F 69% 29.80 in 10.0 mi South 18.4 mph 25.3 mph N/A   Clear